User: anonymous   Login
Location: Chiroubles
(46.1812°N, 4.6660°E)
Time: 09:25:58
(UTC+00:00)
Language:

Cosmos 2016 Rocket - Orbit

View from above orbital plane
View from above orbital plane
View from above satellite
View from above satellite

Ground track
Ground track

The orbit data is extracted from the following two-line orbital elements,

1 19922U 89028B   20293.35188532 -.00000012 +00000-0 -27717-4 0  9994
2 19922 082.9589 241.5926 0037923 068.5500 291.9695 13.77223133585172
Epoch (UTC): 19 October 2020 08:26:42
Eccentricity: 0.0037923
inclination: 82.9589°
perigee height: 946 km
apogee height: 1001 km
right ascension of ascending node: 241.5926°
argument of perigee: 68.5500°
revolutions per day: 13.77223133
mean anomaly at epoch: 291.9695°
orbit number at epoch: 58517

The dashed part of the orbit path shows where the satellite is in the earth's shadow,  

DLR